OYBJM EKRK-EKRK

Flight info

Callsign OYBJM
Flight time 0h 3m
Altitude 1000
Route CIRCLES
Aircraft C150/L-S/С

Departure

Time 2026-04-30 18:36
Airport Copenhagen Roskilde Airport (EKRK)

Arrival

Time 2026-04-30 18:40
Airport Copenhagen Roskilde Airport (EKRK)
Time Latitude Longitude Altitude Speed Heading
2026-04-30 18:07 55.58942 12.12818 132 ft 0 kts 26°
2026-04-30 18:28 55.58943 12.12818 132 ft 0 kts 26°
2026-04-30 18:28 55.58936 12.12971 133 ft 11 kts 115°
2026-04-30 18:29 55.58896 12.13113 132 ft 11 kts 115°
2026-04-30 18:29 55.58703 12.13265 130 ft 18 kts 116°
2026-04-30 18:30 55.58590 12.13673 131 ft 16 kts 116°
2026-04-30 18:30 55.58606 12.13739 131 ft 0 kts 309°
2026-04-30 18:34 55.58570 12.13764 131 ft 10 kts 137°
2026-04-30 18:34 55.58506 12.13774 131 ft 10 kts 208°
2026-04-30 18:35 55.58431 12.13710 129 ft 13 kts 208°
2026-04-30 18:35 55.58446 12.13534 127 ft 31 kts 296°
2026-04-30 18:35 55.58581 12.13061 191 ft 61 kts 298°
2026-04-30 18:36 55.59021 12.11497 500 ft 76 kts 298°
2026-04-30 18:36 55.59345 12.10879 605 ft 69 kts 345°
2026-04-30 18:36 55.60072 12.11795 777 ft 79 kts 96°
2026-04-30 18:37 55.59786 12.12700 867 ft 85 kts 125°
2026-04-30 18:37 55.59412 12.13578 914 ft 94 kts 128°
2026-04-30 18:37 55.59008 12.14486 925 ft 93 kts 130°
2026-04-30 18:37 55.58585 12.15366 917 ft 94 kts 132°
2026-04-30 18:38 55.58142 12.16248 907 ft 95 kts 133°
2026-04-30 18:38 55.57692 12.17130 896 ft 96 kts 133°
2026-04-30 18:38 55.57254 12.18035 854 ft 94 kts 144°
2026-04-30 18:38 55.56717 12.18026 825 ft 73 kts 235°
2026-04-30 18:39 55.56796 12.17343 772 ft 67 kts 320°
2026-04-30 18:39 55.57252 12.16983 698 ft 72 kts 338°
2026-04-30 18:39 55.57627 12.16579 672 ft 59 kts 304°
2026-04-30 18:39 55.57793 12.15906 582 ft 58 kts 294°
2026-04-30 18:40 55.57967 12.15228 466 ft 63 kts 297°
2026-04-30 18:40 55.58159 12.14547 270 ft 58 kts 298°
2026-04-30 18:40 55.58325 12.13965 140 ft 48 kts 298°
2026-04-30 18:40 55.58465 12.13469 127 ft 51 kts 296°
2026-04-30 18:41 55.58663 12.12766 251 ft 69 kts 297°
2026-04-30 18:41 55.58891 12.11992 427 ft 71 kts 300°
2026-04-30 18:41 55.59088 12.11235 616 ft 67 kts 295°
2026-04-30 18:41 55.59478 12.10843 749 ft 75 kts
2026-04-30 18:42 55.59975 12.11246 905 ft 78 kts 26°
2026-04-30 18:42 55.60430 12.13046 999 ft 99 kts 118°
2026-04-30 18:42 55.59958 12.13963 990 ft 100 kts 138°
2026-04-30 18:45 55.57840 12.15681 441 ft 55 kts 298°
2026-04-30 18:45 55.58014 12.15057 321 ft 54 kts 298°
2026-04-30 18:45 55.58177 12.14490 222 ft 48 kts 298°
2026-04-30 18:46 55.58324 12.13969 143 ft 47 kts 298°
2026-04-30 18:46 55.58457 12.13500 127 ft 35 kts 297°
2026-04-30 18:46 55.58570 12.13095 125 ft 54 kts 296°
2026-04-30 18:46 55.58767 12.12406 286 ft 66 kts 297°
2026-04-30 18:47 55.58984 12.11624 443 ft 76 kts 298°
2026-04-30 18:47 55.59272 12.10783 603 ft 79 kts 318°
2026-04-30 18:47 55.59811 12.10620 692 ft 82 kts 13°
2026-04-30 18:47 55.60344 12.11173 791 ft 85 kts 28°
2026-04-30 18:48 55.60710 12.12015 885 ft 92 kts 73°
2026-04-30 18:48 55.60551 12.13126 951 ft 98 kts 122°
2026-04-30 18:48 55.60166 12.14169 996 ft 102 kts 121°
2026-04-30 18:48 55.59792 12.15333 1006 ft 106 kts 117°
2026-04-30 18:49 55.59397 12.16573 1002 ft 105 kts 120°
2026-04-30 18:49 55.59035 12.17733 968 ft 104 kts 119°
2026-04-30 18:49 55.58664 12.18852 942 ft 103 kts 121°
2026-04-30 18:49 55.58161 12.19727 942 ft 98 kts 161°
2026-04-30 18:50 55.57503 12.19706 874 ft 95 kts 203°
2026-04-30 18:50 55.56940 12.19157 814 ft 83 kts 238°
2026-04-30 18:50 55.56960 12.18342 774 ft 63 kts 306°
2026-04-30 18:50 55.57207 12.17703 704 ft 62 kts 305°
2026-04-30 18:51 55.57432 12.17019 612 ft 62 kts 301°
2026-04-30 18:51 55.57628 12.16383 512 ft 56 kts 302°
2026-04-30 18:51 55.57805 12.15773 409 ft 55 kts 301°
2026-04-30 18:51 55.57985 12.15152 305 ft 55 kts 300°
2026-04-30 18:52 55.58160 12.14541 213 ft 54 kts 301°
2026-04-30 18:52 55.58328 12.13953 137 ft 52 kts 299°
2026-04-30 18:52 55.58466 12.13465 127 ft 36 kts 297°
2026-04-30 18:52 55.58582 12.13055 126 ft 55 kts 296°
2026-04-30 18:53 55.58783 12.12350 286 ft 68 kts 301°
2026-04-30 18:53 55.59042 12.11575 468 ft 77 kts 304°
2026-04-30 18:53 55.59344 12.10759 681 ft 79 kts 321°
2026-04-30 18:53 55.59922 12.10642 784 ft 93 kts 20°
2026-04-30 18:54 55.60464 12.11246 859 ft 82 kts 32°
2026-04-30 18:54 55.60901 12.11838 902 ft 78 kts 39°
2026-04-30 18:54 55.61093 12.12768 924 ft 86 kts 96°
2026-04-30 18:54 55.60789 12.13847 940 ft 87 kts 119°
2026-04-30 18:55 55.60433 12.14803 940 ft 87 kts 123°
2026-04-30 18:55 55.59666 12.16673 923 ft 89 kts 123°
2026-04-30 18:55 55.59287 12.17571 914 ft 90 kts 127°
2026-04-30 18:56 55.58503 12.19301 920 ft 88 kts 127°
2026-04-30 18:56 55.58122 12.20163 925 ft 88 kts 126°
2026-04-30 18:56 55.57747 12.21036 919 ft 88 kts 125°
2026-04-30 18:57 55.57077 12.22867 969 ft 81 kts 99°
2026-04-30 18:57 55.57196 12.23756 1007 ft 74 kts 44°
2026-04-30 18:57 55.57666 12.24070 1017 ft 71 kts 350°
2026-04-30 18:58 55.58418 12.22962 1075 ft 70 kts 313°
2026-04-30 18:58 55.58747 12.22284 1061 ft 74 kts 311°
2026-04-30 18:58 55.59058 12.21530 1068 ft 75 kts 307°
2026-04-30 18:59 55.59679 12.20021 1083 ft 74 kts 314°
2026-04-30 19:00 55.60846 12.17972 1047 ft 77 kts 319°
2026-04-30 19:00 55.61246 12.17295 1030 ft 79 kts 316°
2026-04-30 19:00 55.62036 12.15963 1017 ft 78 kts 317°
2026-04-30 19:01 55.62880 12.14709 1011 ft 78 kts 323°
2026-04-30 19:01 55.63303 12.14110 1016 ft 77 kts 323°
2026-04-30 19:02 55.64181 12.12903 1001 ft 78 kts 323°
2026-04-30 19:02 55.65070 12.11506 990 ft 78 kts 319°
2026-04-30 19:03 55.65815 12.09904 971 ft 81 kts 295°
2026-04-30 19:03 55.65775 12.07932 996 ft 82 kts 250°
2026-04-30 19:04 55.64952 12.06438 989 ft 87 kts 207°
2026-04-30 19:04 55.63659 12.06373 984 ft 90 kts 158°
2026-04-30 19:05 55.62936 12.08051 975 ft 87 kts 94°
2026-04-30 19:05 55.63267 12.10010 959 ft 83 kts 43°
2026-04-30 19:06 55.64257 12.10924 963 ft 79 kts 17°
2026-04-30 19:06 55.64797 12.11251 963 ft 79 kts 14°
2026-04-30 19:06 55.65882 12.11490 961 ft 78 kts 351°
2026-04-30 19:07 55.66618 12.10212 978 ft 77 kts 283°
2026-04-30 19:07 55.66608 12.09226 964 ft 81 kts 270°
2026-04-30 19:08 55.66282 12.07310 971 ft 84 kts 233°
2026-04-30 19:08 55.65232 12.06458 949 ft 91 kts 150°
2026-04-30 19:08 55.64753 12.07190 936 ft 91 kts 136°
2026-04-30 19:09 55.63827 12.08716 927 ft 90 kts 132°
2026-04-30 19:09 55.63467 12.09621 918 ft 90 kts 112°
2026-04-30 19:09 55.63379 12.10677 926 ft 84 kts 77°
2026-04-30 19:10 55.64141 12.11880 943 ft 76 kts 359°
2026-04-30 19:10 55.65022 12.10976 973 ft 74 kts 303°
2026-04-30 19:11 55.65174 12.10073 983 ft 77 kts 280°
2026-04-30 19:11 55.64907 12.08209 993 ft 82 kts 238°
2026-04-30 19:11 55.64468 12.07519 982 ft 87 kts 212°
2026-04-30 19:12 55.63880 12.07244 974 ft 89 kts 182°
2026-04-30 19:12 55.63285 12.07522 990 ft 88 kts 150°
2026-04-30 19:12 55.62805 12.08194 984 ft 89 kts 135°
2026-04-30 19:13 55.61976 12.09863 966 ft 90 kts 127°
2026-04-30 19:13 55.60999 12.11162 980 ft 88 kts 156°
2026-04-30 19:13 55.60447 12.11651 975 ft 89 kts 146°
2026-04-30 19:14 55.60025 12.12414 968 ft 85 kts 124°
2026-04-30 19:14 55.59681 12.13247 964 ft 83 kts 124°
2026-04-30 19:14 55.59339 12.14087 934 ft 84 kts 124°
2026-04-30 19:14 55.58997 12.14930 922 ft 83 kts 123°
2026-04-30 19:15 55.58677 12.15778 901 ft 82 kts 119°
2026-04-30 19:15 55.58002 12.17253 809 ft 72 kts 140°
2026-04-30 19:15 55.57576 12.17607 752 ft 69 kts 185°
2026-04-30 19:16 55.57328 12.17097 726 ft 60 kts 287°
2026-04-30 19:16 55.57560 12.16419 588 ft 66 kts 306°
2026-04-30 19:16 55.58010 12.15023 347 ft 65 kts 304°
2026-04-30 19:17 55.58208 12.14353 204 ft 57 kts 302°
2026-04-30 19:17 55.58516 12.13283 130 ft 66 kts 297°
2026-04-30 19:17 55.58731 12.12482 283 ft 76 kts 298°
2026-04-30 19:18 55.59137 12.11025 558 ft 76 kts 299°
2026-04-30 19:18 55.59573 12.10206 759 ft 71 kts 354°
2026-04-30 19:18 55.60051 12.10518 857 ft 76 kts 22°
2026-04-30 19:19 55.60529 12.10950 981 ft 76 kts 27°
2026-04-30 19:19 55.60715 12.11798 1069 ft 87 kts 97°
2026-04-30 19:19 55.60134 12.13809 1066 ft 93 kts 118°
2026-04-30 19:20 55.59787 12.14798 1050 ft 94 kts 121°
2026-04-30 19:20 55.59433 12.15780 1035 ft 95 kts 121°
2026-04-30 19:20 55.58748 12.17777 1010 ft 95 kts 120°
2026-04-30 19:21 55.58391 12.18765 962 ft 91 kts 121°
2026-04-30 19:21 55.57440 12.19488 782 ft 69 kts 200°
2026-04-30 19:22 55.57035 12.18414 684 ft 62 kts 302°
2026-04-30 19:22 55.57659 12.16306 424 ft 56 kts 300°
2026-04-30 19:23 55.58193 12.14424 206 ft 52 kts 299°
2026-04-30 19:24 55.58480 12.13420 127 ft 46 kts 296°
2026-04-30 19:24 55.58682 12.12689 184 ft 77 kts 298°
2026-04-30 19:24 55.59165 12.11004 375 ft 81 kts 298°
2026-04-30 19:25 55.60461 12.10553 758 ft 81 kts 26°
2026-04-30 19:26 55.60768 12.12111 897 ft 83 kts 127°
2026-04-30 19:26 55.59989 12.13846 968 ft 93 kts 128°
2026-04-30 19:26 55.59569 12.14746 998 ft 95 kts 126°
2026-04-30 19:27 55.58758 12.16697 1012 ft 100 kts 122°
2026-04-30 19:27 55.58064 12.18568 996 ft 87 kts 119°
2026-04-30 19:28 55.57739 12.19495 982 ft 88 kts 120°
2026-04-30 19:28 55.57056 12.21343 949 ft 89 kts 123°
2026-04-30 19:29 55.56285 12.23177 943 ft 87 kts 132°
2026-04-30 19:29 55.55721 12.23580 979 ft 82 kts 189°
2026-04-30 19:30 55.55394 12.21741 950 ft 78 kts 319°
2026-04-30 19:30 55.56234 12.20532 925 ft 77 kts 327°
2026-04-30 19:31 55.56863 12.19115 809 ft 72 kts 298°
2026-04-30 19:31 55.57073 12.18340 748 ft 65 kts 298°
2026-04-30 19:31 55.57462 12.16992 597 ft 60 kts 301°
2026-04-30 19:32 55.57648 12.16325 479 ft 61 kts 300°
2026-04-30 19:32 55.57834 12.15671 363 ft 55 kts 301°
2026-04-30 19:32 55.58002 12.15101 276 ft 51 kts 301°
2026-04-30 19:32 55.58163 12.14534 217 ft 50 kts 301°
2026-04-30 19:33 55.58318 12.13992 144 ft 48 kts 301°
2026-04-30 19:33 55.58448 12.13537 127 ft 26 kts 293°
2026-04-30 19:33 55.58516 12.13289 127 ft 20 kts 296°
2026-04-30 19:33 55.58580 12.13059 126 ft 20 kts 296°
2026-04-30 19:34 55.58650 12.12912 125 ft 12 kts 10°
2026-04-30 19:34 55.58686 12.12947 127 ft 3 kts 28°
2026-04-30 19:34 55.58754 12.13016 129 ft 13 kts 30°
2026-04-30 19:35 55.58822 12.13086 130 ft 10 kts 16°
2026-04-30 19:35 55.58907 12.13154 133 ft 16 kts 25°
2026-04-30 19:35 55.59016 12.13249 137 ft 16 kts 25°
2026-04-30 19:35 55.59107 12.13327 139 ft 9 kts 27°
2026-04-30 19:36 55.59166 12.13349 140 ft 8 kts 313°
2026-04-30 19:36 55.59197 12.13234 139 ft 14 kts 297°
2026-04-30 19:36 55.59311 12.12824 137 ft 20 kts 296°
2026-04-30 19:37 55.59362 12.12641 134 ft 12 kts 298°
2026-04-30 19:37 55.59409 12.12604 135 ft 7 kts 30°
2026-04-30 19:37 55.59457 12.12650 136 ft 8 kts 26°
2026-04-30 19:37 55.59515 12.12699 137 ft 7 kts 29°
2026-04-30 19:38 55.59540 12.12692 137 ft 0 kts 298°
2026-04-30 19:38 55.59540 12.12691 137 ft 0 kts 298°